Weather History for KEWB - April, 2013

Change the Weather History Date:

Thursday, April 4, 2013

  Actual Average Record
Temperature  
Mean Temperature 37 °F -  
Max Temperature 48 °F 51 °F 64 °F (2012)
Min Temperature 28 °F 38 °F 22 °F (1954)
Degree Days  
Heating Degree Days 28    
Moisture  
Dew Point 20 °F    
Average Humidity 50    
Maximum Humidity 79    
Minimum Humidity 27    
Precipitation  
Precipitation 0.00 in - - ()
Sea Level Pressure  
Sea Level Pressure 30.21 in    
Wind  
Wind Speed 10 mph (WSW)    
Max Wind Speed 20 mph    
Max Gust Speed 23 mph    
Visibility 10 miles    
Events      
Averages and records for this station are not official NWS values.
T = Trace of Precipitation, MM = Missing Value Source: NWS Daily Summary

Daily Weather History Graph

Daily Weather History Graph

Search for Another Location

Airport or City:

Trip Planner

Search our weather history database for the weather conditions in past years. The results will help you decide how hot, cold, wet, or windy it might be!

Date:

Astronomy

Apr. 04, 2013 Rise Set
Actual Time 6:21 AM EDT 7:12 PM EDT
Civil Twilight 5:53 AM EDT 7:40 PM EDT
Nautical Twilight 5:19 AM EDT 8:14 PM EDT
Astronomical Twilight 4:45 AM EDT 8:49 PM EDT
Moon 2:50 AM EDT (4/4) 1:23 PM EDT (4/4)
Length of Visible Light 13h 47m
Length of Day
12h 51m
Waning Crescent, 34% of the Moon is Illuminated
Apr 4
Waning Crescent
Apr 10
New
Apr 18
First Quarter
Apr 25
Full
May 2
Last Quarter

Hourly Weather History & Observations

Time (EDT) Temp. Windchill Dew Point Humidity Pressure Visibility Wind Dir Wind Speed Gust Speed Precip Events Conditions
12:53 AM 33.1 °F 24.9 °F 14.0 °F 46% 30.20 in 10.0 mi WNW 10.4 mph 19.6 mph N/A   Clear
1:53 AM 33.1 °F 24.9 °F 14.0 °F 46% 30.19 in 10.0 mi NW 10.4 mph - N/A   Clear
2:53 AM 32.0 °F 24.2 °F 14.0 °F 48% 30.18 in 10.0 mi NW 9.2 mph 20.7 mph N/A   Clear
3:53 AM 30.9 °F 25.2 °F 14.0 °F 50% 30.19 in 10.0 mi Variable 5.8 mph - N/A   Clear
4:53 AM 30.0 °F 24.1 °F 15.1 °F 54% 30.21 in 10.0 mi WNW 5.8 mph - N/A   Clear
5:53 AM 28.9 °F 21.9 °F 15.1 °F 56% 30.25 in 10.0 mi West 6.9 mph - N/A   Clear
6:53 AM 30.0 °F 23.2 °F 16.0 °F 56% 30.30 in 10.0 mi West 6.9 mph - N/A   Clear
7:53 AM 34.0 °F 26.0 °F 17.1 °F 50% 30.30 in 10.0 mi West 10.4 mph 20.7 mph N/A   Clear
8:53 AM 37.0 °F 29.8 °F 18.0 °F 46% 30.32 in 10.0 mi WNW 10.4 mph - N/A   Clear
9:53 AM 39.9 °F 33.4 °F 17.1 °F 40% 30.30 in 10.0 mi West 10.4 mph 18.4 mph N/A   Clear
10:53 AM 43.0 °F 38.2 °F 15.1 °F 32% 30.28 in 10.0 mi West 8.1 mph - N/A   Clear
11:53 AM 44.1 °F 39.0 °F 16.0 °F 32% 30.27 in 10.0 mi West 9.2 mph - N/A   Clear
12:53 PM 46.9 °F - 14.0 °F 27% 30.25 in 10.0 mi WNW 9.2 mph - N/A   Clear
1:53 PM 46.9 °F - 23.0 °F 39% 30.24 in 10.0 mi SSW 13.8 mph 23.0 mph N/A   Clear
2:53 PM 46.9 °F - 23.0 °F 39% 30.20 in 10.0 mi SSW 15.0 mph - N/A   Clear
3:53 PM 46.9 °F - 21.9 °F 37% 30.17 in 10.0 mi SW 13.8 mph 19.6 mph N/A   Clear
4:53 PM 46.0 °F 38.5 °F 23.0 °F 40% 30.15 in 10.0 mi SSW 19.6 mph 23.0 mph N/A   Clear
5:53 PM 44.1 °F 36.2 °F 24.1 °F 45% 30.14 in 10.0 mi SSW 18.4 mph - N/A   Clear
6:53 PM 39.9 °F 33.9 °F 25.0 °F 55% 30.15 in 10.0 mi SW 9.2 mph 18.4 mph N/A   Clear
7:53 PM 39.0 °F 31.8 °F 27.0 °F 62% 30.16 in 10.0 mi SSW 11.5 mph - N/A   Clear
8:53 PM 37.9 °F 30.0 °F 30.0 °F 73% 30.16 in 10.0 mi SW 12.7 mph 20.7 mph N/A   Clear
9:53 PM 37.9 °F 30.0 °F 30.9 °F 76% 30.14 in 10.0 mi SW 12.7 mph - N/A   Clear
10:53 PM 37.9 °F 29.6 °F 32.0 °F 79% 30.13 in 10.0 mi SW 13.8 mph - N/A   Clear
11:53 PM 39.0 °F 31.0 °F 32.0 °F 76% 30.10 in 10.0 mi SSW 13.8 mph - N/A   Clear